Time,TemperatureF,DewpointF,PressureIn,WindDirection,WindDirectionDegrees,WindSpeedMPH,WindSpeedGustMPH,Humidity,HourlyPrecipIn,Conditions,Clouds,dailyrainin,SoftwareType,DateUTC
2013-08-28 00:09:00,65.7,65.0,29.86,SW,221,0.0,0.0,96,0.00,,,0.00,weatherlink.com 1.10,2013-08-28 04:09:00,
2013-08-28 00:24:00,65.7,65.0,29.86,SW,221,0.0,0.0,96,0.00,,,0.00,weatherlink.com 1.10,2013-08-28 04:24:00,
2013-08-28 00:54:00,65.4,64.0,29.86,SW,221,0.0,0.0,95,0.00,,,0.00,weatherlink.com 1.10,2013-08-28 04:54:00,
2013-08-28 01:09:00,65.0,64.0,29.85,SW,221,0.0,0.0,96,0.00,,,0.00,weatherlink.com 1.10,2013-08-28 05:09:00,
2013-08-28 01:24:00,64.8,64.0,29.85,SW,221,0.0,0.0,96,0.00,,,0.00,weatherlink.com 1.10,2013-08-28 05:24:00,
2013-08-28 01:39:00,64.7,64.0,29.85,SW,219,0.0,0.0,96,0.00,,,0.00,weatherlink.com 1.10,2013-08-28 05:39:00,
2013-08-28 01:54:00,64.6,64.0,29.84,SW,221,0.0,0.0,97,0.00,,,0.00,weatherlink.com 1.10,2013-08-28 05:54:00,
2013-08-28 02:09:00,64.5,64.0,29.84,SW,221,0.0,0.0,97,0.00,,,0.00,weatherlink.com 1.10,2013-08-28 06:09:00,
2013-08-28 02:24:00,64.2,63.0,29.84,SW,221,0.0,0.0,97,0.00,,,0.00,weatherlink.com 1.10,2013-08-28 06:24:00,
2013-08-28 02:39:00,63.9,63.0,29.83,SW,221,0.0,0.0,98,0.00,,,0.00,weatherlink.com 1.10,2013-08-28 06:39:00,
2013-08-28 02:54:00,63.8,63.0,29.83,SW,221,0.0,0.0,98,0.00,,,0.00,weatherlink.com 1.10,2013-08-28 06:54:00,
2013-08-28 03:09:00,63.7,63.0,29.83,SW,221,0.0,0.0,98,0.00,,,0.00,weatherlink.com 1.10,2013-08-28 07:09:00,
2013-08-28 03:24:00,63.5,63.0,29.83,SW,221,0.0,0.0,98,0.00,,,0.00,weatherlink.com 1.10,2013-08-28 07:24:00,
2013-08-28 03:39:00,63.4,63.0,29.83,SW,219,0.0,0.0,99,0.00,,,0.00,weatherlink.com 1.10,2013-08-28 07:39:00,
2013-08-28 03:55:00,63.3,63.0,29.83,SW,221,0.0,0.0,99,0.00,,,0.00,weatherlink.com 1.10,2013-08-28 07:55:00,
2013-08-28 04:10:00,63.2,63.0,29.83,SW,221,0.0,0.0,99,0.00,,,0.00,weatherlink.com 1.10,2013-08-28 08:10:00,
2013-08-28 04:25:00,63.2,63.0,29.83,SW,221,0.0,0.0,99,0.00,,,0.00,weatherlink.com 1.10,2013-08-28 08:25:00,
2013-08-28 04:40:00,63.1,63.0,29.83,SW,221,0.0,0.0,99,0.00,,,0.00,weatherlink.com 1.10,2013-08-28 08:40:00,
2013-08-28 04:55:00,63.1,63.0,29.84,SW,221,0.0,0.0,99,0.00,,,0.00,weatherlink.com 1.10,2013-08-28 08:55:00,
2013-08-28 05:10:00,63.0,63.0,29.84,SW,221,0.0,0.0,99,0.00,,,0.00,weatherlink.com 1.10,2013-08-28 09:10:00,
2013-08-28 05:25:00,62.8,63.0,29.84,SW,221,0.0,0.0,99,0.00,,,0.00,weatherlink.com 1.10,2013-08-28 09:25:00,
2013-08-28 05:40:00,62.7,63.0,29.84,SW,221,0.0,0.0,99,0.00,,,0.00,weatherlink.com 1.10,2013-08-28 09:40:00,
2013-08-28 05:55:00,62.8,63.0,29.85,SW,221,0.0,0.0,100,0.00,,,0.00,weatherlink.com 1.10,2013-08-28 09:55:00,
2013-08-28 06:10:00,62.9,63.0,29.85,SW,221,0.0,0.0,100,0.00,,,0.00,weatherlink.com 1.10,2013-08-28 10:10:00,
2013-08-28 06:25:00,63.0,63.0,29.86,SW,221,0.0,0.0,100,0.00,,,0.00,weatherlink.com 1.10,2013-08-28 10:25:00,
2013-08-28 06:40:00,63.8,64.0,29.86,SW,221,0.0,0.0,100,0.00,,,0.00,weatherlink.com 1.10,2013-08-28 10:40:00,
2013-08-28 06:56:00,63.7,64.0,29.86,SW,219,0.0,0.0,100,0.00,,,0.00,weatherlink.com 1.10,2013-08-28 10:56:00,
2013-08-28 07:10:00,63.8,64.0,29.85,SW,219,0.0,0.0,100,0.00,,,0.00,weatherlink.com 1.10,2013-08-28 11:10:00,
2013-08-28 07:25:00,64.2,64.0,29.86,SW,219,0.0,0.0,100,0.00,,,0.00,weatherlink.com 1.10,2013-08-28 11:25:00,
2013-08-28 07:40:00,64.6,65.0,29.86,SW,219,0.0,0.0,100,0.00,,,0.00,weatherlink.com 1.10,2013-08-28 11:40:00,
2013-08-28 07:55:00,65.1,65.0,29.86,SW,219,0.0,0.0,100,0.00,,,0.00,weatherlink.com 1.10,2013-08-28 11:55:00,
2013-08-28 08:10:00,65.9,66.0,29.86,SW,219,0.0,0.0,100,0.00,,,0.00,weatherlink.com 1.10,2013-08-28 12:10:00,
2013-08-28 08:25:00,66.7,67.0,29.86,SW,219,0.0,1.0,100,0.00,,,0.00,weatherlink.com 1.10,2013-08-28 12:25:00,
2013-08-28 08:40:00,67.5,67.0,29.86,SW,219,0.0,0.0,99,0.00,,,0.00,weatherlink.com 1.10,2013-08-28 12:40:00,
2013-08-28 08:55:00,68.7,68.0,29.86,SW,219,0.0,1.0,96,0.00,,,0.00,weatherlink.com 1.10,2013-08-28 12:55:00,
2013-08-28 09:10:00,70.0,68.0,29.87,SSW,212,0.0,1.0,94,0.00,,,0.00,weatherlink.com 1.10,2013-08-28 13:10:00,
2013-08-28 09:25:00,71.3,69.0,29.87,SSW,197,0.0,2.0,93,0.00,,,0.00,weatherlink.com 1.10,2013-08-28 13:25:00,
2013-08-28 09:40:00,72.6,68.0,29.87,SSE,155,2.0,2.0,85,0.00,,,0.00,weatherlink.com 1.10,2013-08-28 13:40:00,
2013-08-28 09:55:00,73.7,68.0,29.88,SSE,149,0.0,1.0,82,0.00,,,0.00,weatherlink.com 1.10,2013-08-28 13:55:00,
2013-08-28 10:10:00,74.2,67.0,29.87,SE,131,1.0,1.0,79,0.00,,,0.00,weatherlink.com 1.10,2013-08-28 14:10:00,
2013-08-28 10:25:00,76.2,69.0,29.87,SSE,167,0.0,1.0,78,0.00,,,0.00,weatherlink.com 1.10,2013-08-28 14:25:00,
2013-08-28 10:40:00,77.3,69.0,29.87,SSW,210,3.0,3.0,75,0.00,,,0.00,weatherlink.com 1.10,2013-08-28 14:40:00,
2013-08-28 10:55:00,78.9,69.0,29.87,South,173,0.0,3.0,72,0.00,,,0.00,weatherlink.com 1.10,2013-08-28 14:55:00,
2013-08-28 11:10:00,79.1,70.0,29.87,SW,219,1.0,2.0,73,0.00,,,0.00,weatherlink.com 1.10,2013-08-28 15:10:00,
2013-08-28 11:25:00,80.4,70.0,29.86,SSW,206,1.0,2.0,71,0.00,,,0.00,weatherlink.com 1.10,2013-08-28 15:25:00,
2013-08-28 11:41:00,81.4,70.0,29.86,SSE,160,0.0,3.0,69,0.00,,,0.00,weatherlink.com 1.10,2013-08-28 15:41:00,
2013-08-28 11:56:00,81.6,71.0,29.86,SW,222,0.0,3.0,69,0.00,,,0.00,weatherlink.com 1.10,2013-08-28 15:56:00,
2013-08-28 12:11:00,81.5,72.0,29.85,ESE,115,0.0,1.0,72,0.00,,,0.00,weatherlink.com 1.10,2013-08-28 16:11:00,
2013-08-28 12:26:00,83.2,71.0,29.85,SSW,198,1.0,2.0,66,0.00,,,0.00,weatherlink.com 1.10,2013-08-28 16:26:00,
2013-08-28 12:56:00,83.6,70.0,29.84,SW,218,0.0,2.0,64,0.00,,,0.00,weatherlink.com 1.10,2013-08-28 16:56:00,
2013-08-28 13:26:00,84.5,71.0,29.84,SSE,148,0.0,2.0,64,0.00,,,0.00,weatherlink.com 1.10,2013-08-28 17:26:00,
2013-08-28 13:41:00,82.5,70.0,29.83,SSW,195,0.0,1.0,67,0.00,,,0.00,weatherlink.com 1.10,2013-08-28 17:41:00,
2013-08-28 13:56:00,83.6,70.0,29.83,SE,145,1.0,3.0,63,0.00,,,0.00,weatherlink.com 1.10,2013-08-28 17:56:00,
2013-08-28 14:11:00,84.8,69.0,29.82,SW,219,0.0,2.0,59,0.00,,,0.00,weatherlink.com 1.10,2013-08-28 18:11:00,
2013-08-28 14:26:00,85.4,69.0,29.82,SSW,201,1.0,2.0,59,0.00,,,0.00,weatherlink.com 1.10,2013-08-28 18:26:00,
2013-08-28 14:41:00,83.5,69.0,29.82,SSE,162,1.0,1.0,62,0.00,,,0.00,weatherlink.com 1.10,2013-08-28 18:41:00,
2013-08-28 14:56:00,81.6,71.0,29.82,SSE,168,0.0,1.0,70,0.00,,,0.00,weatherlink.com 1.10,2013-08-28 18:56:00,
2013-08-28 15:11:00,80.3,70.0,29.81,SSW,208,0.0,1.0,71,0.00,,,0.00,weatherlink.com 1.10,2013-08-28 19:11:00,
2013-08-28 15:26:00,80.3,69.0,29.81,SE,139,0.0,1.0,68,0.00,,,0.00,weatherlink.com 1.10,2013-08-28 19:26:00,
2013-08-28 15:41:00,80.8,70.0,29.81,SW,219,1.0,4.0,70,0.00,,,0.00,weatherlink.com 1.10,2013-08-28 19:41:00,
2013-08-28 15:56:00,80.3,71.0,29.81,SE,133,1.0,2.0,73,0.00,,,0.00,weatherlink.com 1.10,2013-08-28 19:56:00,
2013-08-28 16:11:00,79.5,70.0,29.81,SE,136,1.0,2.0,73,0.00,,,0.00,weatherlink.com 1.10,2013-08-28 20:11:00,
2013-08-28 16:26:00,78.5,70.0,29.82,ESE,111,0.0,1.0,76,0.00,,,0.00,weatherlink.com 1.10,2013-08-28 20:26:00,
2013-08-28 16:41:00,77.6,71.0,29.82,SSE,165,0.0,0.0,80,0.00,,,0.00,weatherlink.com 1.10,2013-08-28 20:41:00,
2013-08-28 16:56:00,76.6,71.0,29.82,SSE,165,0.0,0.0,83,0.00,,,0.00,weatherlink.com 1.10,2013-08-28 20:56:00,
2013-08-28 17:12:00,74.5,71.0,29.83,SSE,165,0.0,0.0,89,0.01,,,0.01,weatherlink.com 1.10,2013-08-28 21:12:00,
2013-08-28 17:26:00,73.5,71.0,29.83,SSE,165,0.0,0.0,92,0.01,,,0.01,weatherlink.com 1.10,2013-08-28 21:26:00,
2013-08-28 17:41:00,72.6,71.0,29.84,SSE,165,0.0,0.0,94,0.01,,,0.01,weatherlink.com 1.10,2013-08-28 21:41:00,
2013-08-28 17:56:00,71.8,70.0,29.84,SSE,165,0.0,0.0,94,0.01,,,0.01,weatherlink.com 1.10,2013-08-28 21:56:00,
2013-08-28 18:11:00,71.1,69.0,29.84,SSE,165,0.0,0.0,93,0.00,,,0.01,weatherlink.com 1.10,2013-08-28 22:11:00,
2013-08-28 18:26:00,70.6,69.0,29.85,SSE,165,0.0,0.0,94,0.00,,,0.01,weatherlink.com 1.10,2013-08-28 22:26:00,
2013-08-28 18:41:00,70.1,68.0,29.86,SSE,165,0.0,0.0,94,0.00,,,0.01,weatherlink.com 1.10,2013-08-28 22:41:00,
2013-08-28 18:56:00,69.7,68.0,29.86,SSE,165,0.0,0.0,95,0.00,,,0.01,weatherlink.com 1.10,2013-08-28 22:56:00,
2013-08-28 19:11:00,69.5,68.0,29.86,SSE,165,0.0,0.0,95,0.00,,,0.00,weatherlink.com 1.10,2013-08-28 23:11:00,
2013-08-28 19:26:00,69.2,68.0,29.87,SSE,165,0.0,0.0,96,0.00,,,0.00,weatherlink.com 1.10,2013-08-28 23:26:00,
2013-08-28 19:41:00,68.8,68.0,29.88,SSE,165,0.0,0.0,96,0.00,,,0.00,weatherlink.com 1.10,2013-08-28 23:41:00,
2013-08-28 19:56:00,68.4,67.0,29.88,SSE,165,0.0,0.0,96,0.00,,,0.00,weatherlink.com 1.10,2013-08-28 23:56:00,
2013-08-28 20:11:00,68.2,67.0,29.89,SSE,165,0.0,0.0,96,0.00,,,0.00,weatherlink.com 1.10,2013-08-29 00:11:00,
2013-08-28 20:26:00,68.0,67.0,29.89,SSE,165,0.0,0.0,96,0.01,,,0.01,weatherlink.com 1.10,2013-08-29 00:26:00,
2013-08-28 20:41:00,67.7,67.0,29.90,SSE,165,0.0,1.0,97,0.02,,,0.02,weatherlink.com 1.10,2013-08-29 00:41:00,
2013-08-28 20:56:00,66.7,66.0,29.91,ENE,77,0.0,1.0,96,0.03,,,0.03,weatherlink.com 1.10,2013-08-29 00:56:00,
2013-08-28 21:11:00,66.0,65.0,29.92,ENE,75,1.0,2.0,97,0.07,,,0.07,weatherlink.com 1.10,2013-08-29 01:11:00,
2013-08-28 21:26:00,64.9,64.0,29.93,East,99,1.0,2.0,98,0.08,,,0.09,weatherlink.com 1.10,2013-08-29 01:26:00,
2013-08-28 21:42:00,64.4,64.0,29.94,NE,50,0.0,1.0,99,0.07,,,0.09,weatherlink.com 1.10,2013-08-29 01:42:00,
2013-08-28 21:57:00,64.2,64.0,29.95,NE,48,0.0,1.0,99,0.05,,,0.09,weatherlink.com 1.10,2013-08-29 01:57:00,
2013-08-28 22:12:00,63.7,64.0,29.95,NE,49,0.0,1.0,99,0.02,,,0.09,weatherlink.com 1.10,2013-08-29 02:12:00,
2013-08-28 22:27:00,63.5,63.0,29.95,ENE,70,0.0,1.0,99,0.00,,,0.09,weatherlink.com 1.10,2013-08-29 02:27:00,
2013-08-28 22:42:00,63.2,63.0,29.94,ENE,58,0.0,0.0,99,0.00,,,0.09,weatherlink.com 1.10,2013-08-29 02:42:00,
2013-08-28 22:57:00,62.9,63.0,29.94,ENE,57,0.0,0.0,99,0.00,,,0.09,weatherlink.com 1.10,2013-08-29 02:57:00,
2013-08-28 23:12:00,63.0,63.0,29.94,NE,47,1.0,1.0,99,0.00,,,0.09,weatherlink.com 1.10,2013-08-29 03:12:00,
2013-08-28 23:27:00,63.4,63.0,29.95,NNE,15,0.0,1.0,100,0.00,,,0.09,weatherlink.com 1.10,2013-08-29 03:27:00,
2013-08-28 23:41:00,63.3,63.0,29.95,NNE,16,0.0,1.0,100,0.00,,,0.09,weatherlink.com 1.10,2013-08-29 03:41:00,
2013-08-28 23:56:00,63.4,63.0,29.95,NNW,329,0.0,1.0,100,0.00,,,0.09,weatherlink.com 1.10,2013-08-29 03:56:00,